This demonstration page uses our WeatherBlox Daily Observations layout. Learn more.

Left ArrowRight Arrow

Hourly Observations for October 4, 2022

Temp ( °F °C ) Dew Point ( °F °C ) Humidity (%) Winds ( mph kmh ) Pressure ( in mb ) Visibility ( mi km ) Precip ( " mm )
12:52 am 00:52 Partly Cloudy 60 15.6 47 8.3 62 62 SSE 6 9 30.15 1021 10 16 0.00 0.00
1:52 am 01:52 Partly Cloudy 58 14.4 48 8.9 70 70 SE 8 13 30.14 1021 10 16 0.00 0.00
2:52 am 02:52 Partly Cloudy 59 15 48 8.9 67 67 SE 9 15 30.13 1020 10 16 0.00 0.00
3:52 am 03:52 Partly Cloudy 60 15.6 48 8.9 64 64 SSE 9 15 30.12 1020 10 16 0.00 0.00
4:52 am 04:52 Mostly Cloudy 58 14.4 48 8.9 70 70 SSE 9 15 30.12 1020 10 16 0.00 0.00
5:52 am 05:52 Mostly Cloudy 55 12.8 47 8.3 74 74 SSE 7 11 30.12 1020 10 16 0.00 0.00
6:52 am 06:52 Mostly Cloudy 56 13.3 47 8.3 72 72 SSE 9 15 30.12 1020 10 16 0.00 0.00
7:52 am 07:52 Mostly Cloudy 56 13.3 47 8.3 72 72 SSE 10 17 30.12 1020 10 16 0.00 0.00
8:52 am 08:52 Cloudy 59 15 47 8.3 64 64 SSE 12 19 30.12 1020 10 16 0.00 0.00
9:52 am 09:52 Cloudy 62 16.7 48 8.9 60 60 S 14 22 30.12 1020 10 16 0.00 0.00
10:52 am 10:52 Cloudy 66 18.9 49 9.4 54 54 S 12 19 30.11 1020 10 16 0.00 0.00
11:52 am 11:52 Mostly Cloudy 69 20.6 49 9.4 49 49 S 10 17 30.10 1019 10 16 0.00 0.00
12:52 pm 12:52 Cloudy 74 23.3 49 9.4 41 41 S 10 17 30.08 1019 10 16 0.00 0.00
1:52 pm 13:52 Cloudy 78 25.6 49 9.4 36 36 S 9 15 30.06 1018 10 16 0.00 0.00
2:52 pm 14:52 Cloudy 80 26.7 49 9.4 34 34 S 7 11 30.03 1017 10 16 0.00 0.00
3:52 pm 15:52 Cloudy 81 27.2 48 8.9 32 32 S 6 9 30.01 1016 10 16 0.00 0.00
4:52 pm 16:52 Cloudy 81 27.2 45 7.2 28 28 SW 7 11 30.01 1016 10 16 0.00 0.00
5:52 pm 17:52 Cloudy 75 23.9 48 8.9 38 38 NW 12 19 30.02 1017 10 16 0.00 0.00
6:52 pm 18:52 Cloudy 71 21.7 47 8.3 42 42 WNW 6 9 30.04 1017 10 16 0.00 0.00
7:52 pm 19:52 Cloudy with Light Rain 67 19.4 50 10 55 55 N 7 11 30.05 1018 10 16 0.01 0.13
8:52 pm 20:52 Cloudy 66 18.9 51 10.6 59 59 VRB 3 6 30.05 1018 10 16 0.01 0.13
9:52 pm 21:52 Cloudy 67 19.4 51 10.6 57 57 SE 7 11 30.06 1018 10 16 0.00 0.00
10:52 pm 22:52 Cloudy 67 19.4 51 10.6 57 57 ESE 7 11 30.05 1018 10 16 0.01 0.13
11:52 pm 23:52 Mostly Cloudy with Light Rain 65 18.3 54 12.2 68 68 SE 5 7 30.04 1017 10 16 0.01 0.13

Powered by AerisWeather